Regional Weather Roundup
Issued by NWS Cleveland, OH

Home | Current Version | Previous Version | Graphics & Text | Print | Product List | Glossary On
Versions: 1 2 3 4 5 6 7 8 9 10 11 12 13 14 15 16 17 18 19 20 21 22 23 24 25 26 27 28 29 30 31 32 33 34 35 36 37 38 39 40 41 42 43 44 45 46 47 48 49 50
759
ASUS41 KCLE 090610
RWRCLE
OHIO REGIONAL WEATHER ROUNDUP
NATIONAL WEATHER SERVICE CLEVELAND, OH
100 AM EST TUE FEB 09 2016

NOTE: "FAIR" INDICATES FEW OR NO CLOUDS BELOW 12,000 FEET WITH NO
SIGNIFICANT WEATHER AND/OR OBSTRUCTIONS TO VISIBILITY.

OHZ001>008-015>018-024>027-034-035-043-044-090700-
   NORTHWEST OHIO

CITY           SKY/WX    TMP DP  RH WIND       PRES   REMARKS
DEFIANCE       CLOUDY    31  24  75 W8        29.63S WCI  23
FINDLAY        CLOUDY    32  26  78 W13       29.61S WCI  22
TOLEDO EXPRESS CLOUDY    32  27  81 W12       29.60S WCI  23
TOLEDO EXEC    CLOUDY    33  27  78 W10       29.60F WCI  25
LIMA           CLOUDY    28  25  88 W14       29.63S WCI  17
$$

OHZ009>014-019>023-028>033-038-089-090700-
   NORTHEAST OHIO

CITY           SKY/WX    TMP DP  RH WIND       PRES   REMARKS
CLE-HOPKINS    LGT SNOW  32  30  92 SW7       29.60S FOG     WCI  26
CLE-LAKEFRONT  LGT SNOW  34  32  92 SW8       29.57S FOG     WCI  27
CUY CO. ARPT   NOT AVBL
LORAIN-ELYRIA  CLOUDY    32  28  85 W8        29.58S WCI  25
ASHTABULA      FLURRIES  33  31  92 SW7       29.56S WCI  27
AKRON-CANTON   CLOUDY    32  30  92 W5        29.56S FOG     WCI  27
WOOSTER        MOCLDY    28  26  92 W9        29.57F FOG     WCI  19
MANSFIELD      CLOUDY    30  27  88 W9        29.57F WCI  22
YOUNGSTOWN     LGT SNOW  32  30  92 SW5       29.55F FOG     WCI  27
$$

OHZ042-051>053-060>062-070>072-077>081-090700-
  SOUTHWEST OHIO

CITY           SKY/WX    TMP DP  RH WIND       PRES   REMARKS
CINC-COVINGTON FLURRIES  22  17  81 W15       29.73S WCI   9
CINC-LUNKEN    LGT SNOW  24  20  84 W10       29.76S FOG     WCI  14
HAMILTON       LGT SNOW  23  21  92 W7        29.74F FOG     WCI  15
DAYTON         LGT SNOW  24  21  88 W14       29.67F FOG     WCI  12
WRIGHT-PAT AFB LGT SNOW  25  21  87 W10       29.67F FOG     WCI  15
DAYTON GENERAL LGT SNOW  22  18  85 W8        29.68S FOG     WCI  12
WILMINGTON     LGT SNOW  23  21  92 W15       29.67S FOG     WCI  10
$$

OHZ036-037-039>041-045>050-054>059-063>069-073>076-082>088-090700-
  CENTRAL AND SOUTHEAST OHIO

CITY           SKY/WX    TMP DP  RH WIND       PRES   REMARKS
COLUMBUS       LGT SNOW  30  30 100 W13       29.61S FOG     WCI  20
OSU AIRPORT    LGT SNOW  30  28  92 W13       29.61F FOG     WCI  20
BOLTON FIELD   LGT SNOW  29  27  92 W9G16     29.63S WCI  21
RICKENBACK AFB LGT SNOW  30  29  95 W8        29.62S WCI  23
NEWARK         CLOUDY    34  29  82 MISG      29.60S
MARION         CLOUDY    31  25  78 NW16      29.61S WCI  20
LANCASTER      LGT SNOW  31  28  89 W9G17     29.61S FOG     WCI  23
ZANESVILLE     LGT SNOW  34  31  88 CALM      29.59S VSB 3/4
NEW PHILLY     CLOUDY    32  31  96 CALM      29.59S FOG
$$




USA.gov is the U.S. government's official web portal to all federal, state and local government web resources and services.